Location: Unspecified
(0.0000°N, 0.0000°E)
Time: 04:30:26
(UTC+00:00)

Traac - Visible Passes

Search period start: 05 October 2024 00:00
Search period end: 15 October 2024 00:00
Orbit: 951 x 1102 km, 32.4° (Epoch: 04 October)

Date Brightness Start Highest point End Pass type
(mag) Time Alt. Az. Time Alt. Az. Time Alt. Az.
09 Oct 10.1 19:44:02 10° S 19:45:11 12° SSE 19:45:11 12° SSE visible
10 Oct 10.1 20:22:49 10° SSW 20:24:12 16° SSW 20:24:12 16° SSW visible
11 Oct 9.7 19:13:13 10° S 19:17:02 16° SSE 19:17:37 16° SE visible
11 Oct 10.7 21:03:15 10° SW 21:03:16 10° SW 21:03:16 10° SW visible
12 Oct 9.2 19:52:41 10° SSW 19:56:43 30° S 19:56:43 30° S visible
13 Oct 9.5 18:42:42 10° SSW 18:47:24 20° SSE 18:50:12 16° ESE visible
13 Oct 9.8 20:33:25 10° SW 20:35:52 24° SW 20:35:52 24° SW visible
14 Oct 8.3 19:22:38 10° SW 19:28:55 46° SE 19:29:23 45° SE visible
